FW2794 Weather Reports


time (UTC)temp
F
wind
direction
speed
knots
gust
knots
rain 1hr
in
rain 24hr
in
rain mn
in
humidity
%
barometer
mb
20260906125325 0 0 1.7 5.2 0.00 0.04 0.00 1012.9
20260906124825 0 355 1.7 5.2 0.00 0.04 0.00 1012.8
20260906124324 0 327 0.9 2.6 0.00 0.04 0.00 1012.8
20260906123824 0 327 0.9 7.8 0.00 0.04 0.00 1012.7
20260906121323 0 335 1.7 3.5 0.00 0.04 0.00 1012.9
20260906120823 0 335 1.7 3.5 0.00 0.04 0.00 1012.8
20260906115822 0 335 0.9 2.6 0.00 0.04 0.00 1012.6
20260906115324 0 335 0.0 1.7 0.00 0.04 0.00 1012.6
20260906114822 0 335 0.0 1.7 0.00 0.04 0.00 1012.7
20260906114322 0 335 0.9 1.7 0.00 0.04 0.00 1012.6
20260906113818 0 335 0.0 1.7 0.00 0.04 0.00 1012.6
20260906113318 0 335 0.0 0.0 0.00 0.04 0.00 1012.5
20260906112818 0 335 0.0 0.0 0.00 0.04 0.00 1012.5
20260906112317 0 335 0.0 0.0 0.00 0.04 0.00 1012.6
20260906111817 0 335 0.0 0.0 0.00 0.04 0.00 1012.5
20260906111317 0 335 0.0 0.0 0.00 0.04 0.00 1012.5
20260906110814 0 335 0.0 0.0 0.00 0.04 0.00 1012.5
20260906110314 0 335 0.0 0.9 0.00 0.04 0.00 1012.5
20260906105314 0 335 0.0 0.9 0.00 0.04 0.00 1012.2
20260906104310 0 335 0.0 0.0 0.00 0.04 0.00 1012.2
20260906103810 0 335 0.0 0.0 0.00 0.04 0.00 1012.2
20260906103310 0 335 0.0 0.9 0.00 0.04 0.00 1012.1
20260906102810 0 335 0.0 1.7 0.00 0.04 0.00 1012.1
20260906102310 0 335 0.0 1.7 0.00 0.04 0.00 1012.0
20260906100810 0 335 0.0 0.9 0.00 0.04 0.00 1011.8
20260906100309 0 335 0.0 0.9 0.00 0.04 0.00 1011.7
20260906095809 0 335 0.0 0.0 0.00 0.04 0.00 1011.7
20260906095309 0 335 0.0 0.0 0.00 0.04 0.00 1011.8
20260906094808 0 335 0.0 0.0 0.00 0.04 0.00 1011.7
20260906094308 0 335 0.0 1.7 0.00 0.04 0.00 1011.7
20260906093808 0 335 0.9 1.7 0.00 0.04 0.00 1011.7
20260906093308 0 335 0.0 1.7 0.00 0.04 0.00 1011.7
20260906091808 0 335 0.0 0.9 0.00 0.04 0.00 1011.6
20260906091308 0 335 0.0 0.9 0.00 0.04 0.00 1011.5
20260906090808 0 335 0.0 0.0 0.00 0.04 0.00 1011.5
20260906090307 0 335 0.0 0.0 0.00 0.04 0.00 1011.4
20260906085807 0 335 0.0 0.0 0.00 0.04 0.00 1011.3
20260906085307 0 335 0.0 0.0 0.00 0.04 0.00 1011.3
20260906084807 0 335 0.0 0.0 0.00 0.04 0.00 1011.2
20260906084306 0 335 0.0 0.0 0.00 0.04 0.00 1011.2
20260906083806 0 335 0.0 1.7 0.00 0.04 0.00 1011.2
20260906082806 0 335 0.0 1.7 0.00 0.04 0.00 1011.3
20260906082307 0 335 0.0 0.9 0.00 0.04 0.00 1011.2
20260906081806 0 335 0.0 0.0 0.00 0.04 0.00 1011.0
20260906081307 0 335 0.0 0.0 0.00 0.04 0.00 1011.1
20260906080806 0 335 0.0 0.0 0.00 0.04 0.00 1011.3
20260906075306 0 335 0.0 0.9 0.00 0.04 0.00 1011.2
20260906074806 0 335 0.0 0.0 0.00 0.04 0.00 1011.1
20260906074306 0 335 0.0 0.0 0.00 0.04 0.00 1011.0
20260906073303 0 335 0.0 0.9 0.00 0.04 0.00 1011.3
20260906072802 0 335 0.0 1.7 0.00 0.04 0.00 1011.1
20260906072305 0 335 0.0 1.7 0.00 0.04 0.00 1011.0
20260906071800 0 335 0.0 1.7 0.00 0.04 0.00 1011.0
20260906071300 0 335 0.9 1.7 0.00 0.04 0.00 1011.1
20260906065801 0 335 0.9 2.6 0.00 0.04 0.00 1011.3
20260906065300 0 335 0.9 2.6 0.00 0.04 0.00 1011.4
20260906064800 0 335 0.0 1.7 0.00 0.04 0.00 1011.4
20260906064300 0 335 0.0 0.0 0.00 0.04 0.00 1011.4
20260906063801 0 335 0.0 0.9 0.00 0.04 0.00 1011.6
20260906063300 0 335 0.0 1.7 0.00 0.04 0.00 1011.6
20260906062802 0 335 0.0 2.6 0.00 0.04 0.00 1011.6
20260906062300 0 335 0.9 3.5 0.00 0.04 0.00 1011.7
20260906061802 0 335 0.9 4.3 0.00 0.04 0.00 1011.7
20260906061300 0 335 0.9 4.3 0.00 0.04 0.00 1011.7
20260906060801 0 323 0.9 3.5 0.00 0.04 0.00 1011.8
20260906060300 0 323 0.9 3.5 0.00 0.04 0.00 1011.7
20260906055759 0 323 0.0 1.7 0.00 0.04 0.00 1011.9
20260906054759 0 323 0.9 2.6 0.00 0.04 0.00 1011.8
20260906054256 0 323 0.9 3.5 0.00 0.04 0.00 1011.9
20260906053754 0 323 0.9 4.3 0.00 0.04 0.00 1011.9
20260906053253 0 323 0.9 4.3 0.00 0.04 0.00 1011.9
20260906052752 0 308 0.9 4.3 0.00 0.04 0.00 1012.0
20260906052253 0 308 0.9 4.3 0.00 0.04 0.00 1012.1
20260906051753 0 302 0.9 2.6 0.00 0.04 0.00 1012.1
20260906051253 0 302 0.9 2.6 0.00 0.04 0.00 1012.1
20260906050751 0 302 1.7 2.6 0.00 0.04 0.00 1012.0
20260906050252 0 302 1.7 3.5 0.00 0.04 0.00 1011.8
20260906045752 0 302 1.7 5.2 0.00 0.04 0.00 1011.9
20260906045254 0 302 1.7 5.2 0.00 0.04 0.00 1011.9
20260906042249 0 286 0.9 5.2 0.00 0.04 0.00 1011.8
20260906041748 0 286 1.7 5.2 0.00 0.04 0.00 1011.7
20260906041248 0 286 0.9 3.5 0.00 0.04 0.00 1011.7
20260906040748 0 244 0.9 2.6 0.00 0.04 0.00 1011.5
20260906040246 0 244 0.9 3.5 0.00 0.04 0.00 1011.5
20260906034744 0 235 0.9 3.5 0.00 0.04 0.04 1011.3
20260906034245 0 218 1.7 3.5 0.00 0.04 0.04 1011.4
20260906033744 0 217 1.7 3.5 0.00 0.04 0.04 1011.5
20260906033246 0 218 1.7 3.5 0.00 0.04 0.04 1011.4
20260906032745 0 218 2.6 3.5 0.00 0.04 0.04 1011.5
20260906032244 0 218 1.7 3.5 0.00 0.04 0.04 1011.5
20260906031744 0 218 1.7 4.3 0.00 0.04 0.04 1011.5
20260906031246 0 217 2.6 4.3 0.00 0.04 0.04 1011.7
20260906021740 0 212 1.7 5.2 0.00 0.04 0.04 1012.4
20260906021240 0 206 1.7 5.2 0.00 0.04 0.04 1012.4
20260906020740 0 146 1.7 6.1 0.00 0.04 0.04 1012.5
20260906020241 0 223 1.7 6.1 0.00 0.04 0.04 1012.5
20260906015741 0 208 1.7 4.3 0.00 0.04 0.04 1012.6
20260906015241 0 175 1.7 4.3 0.00 0.04 0.04 1012.5
20260906014740 0 225 1.7 5.2 0.00 0.04 0.04 1012.4
20260906014240 0 217 1.7 5.2 0.00 0.04 0.04 1012.5
20260906013740 0 217 1.7 5.2 0.00 0.04 0.04 1012.3
20260906013240 0 74 2.6 5.2 0.00 0.04 0.04 1012.2
20260906012740 0 166 1.7 6.1 0.00 0.04 0.04 1012.1
20260906012240 0 194 0.9 6.1 0.00 0.04 0.04 1012.0
20260906011741 0 203 1.7 7.8 0.00 0.04 0.04 1012.2
20260906011240 0 148 1.7 8.7 0.00 0.04 0.04 1012.1
20260906010240 0 123 0.9 6.1 0.01 0.04 0.04 1012.3
20260906005740 0 149 1.7 4.3 0.01 0.04 0.04 1012.0
20260906004238 0 205 0.9 3.5 0.02 0.04 0.04 1011.8
20260906002236 0 77 0.0 1.7 0.03 0.04 0.04 1011.9
20260906001736 0 77 0.0 2.6 0.03 0.04 0.04 1011.6
20260906000735 0 98 0.9 3.5 0.03 0.03 0.03 1011.0
20260906000235 0 96 1.7 5.2 0.03 0.03 0.03 1010.8
20260905235733 0 104 0.9 7.8 0.03 0.03 0.03 1010.9
20260905235232 0 88 0.9 7.8 0.03 0.03 0.03 1011.5
20260905234732 0 140 1.7 7.8 0.02 0.02 0.02 1011.6
20260905234230 0 166 2.6 8.7 0.02 0.02 0.02 1011.6
20260905233231 0 170 2.6 7.0 0.02 0.02 0.02 1011.7
20260905232730 0 134 3.5 13.9 0.02 0.02 0.02 1011.9
20260905232230 0 153 3.5 13.9 0.01 0.01 0.01 1012.0
20260905231730 0 159 2.6 7.8 0.01 0.01 0.01 1012.0
20260905231231 0 128 3.5 8.7 0.00 0.00 0.00 1011.8
20260905230731 0 94 4.3 20.9 0.00 0.00 0.00 1011.4
20260905230231 0 69 7.0 20.9 0.00 0.00 0.00 1011.5
20260905225731 0 265 7.8 16.5 0.00 0.00 0.00 1011.3
20260905225231 0 316 8.7 21.7 0.00 0.00 0.00 1010.9
20260905223730 0 301 4.3 18.2 0.00 0.00 0.00 1010.1
20260905223230 0 292 2.6 4.3 0.00 0.00 0.00 1009.7
20260905222729 0 224 3.5 5.2 0.00 0.00 0.00 1009.3
20260905222229 0 224 3.5 6.1 0.00 0.00 0.00 1009.2
20260905221730 0 226 4.3 7.0 0.00 0.00 0.00 1009.1
20260905220231 0 220 4.3 9.6 0.00 0.00 0.00 1009.4
20260905215230 0 231 3.5 6.1 0.00 0.00 0.00 1010.0
20260905214730 0 227 3.5 7.8 0.00 0.00 0.00 1009.8
20260905214230 0 225 3.5 7.8 0.00 0.00 0.00 1009.8
20260905213730 0 221 2.6 5.2 0.00 0.00 0.00 1009.8
20260905213230 0 220 1.7 5.2 0.00 0.00 0.00 1009.5
20260905212228 0 223 3.5 11.3 0.00 0.00 0.00 1009.3
20260905211729 0 221 4.3 11.3 0.00 0.00 0.00 1009.4
20260905211229 0 224 3.5 7.0 0.00 0.00 0.00 1009.5
20260905210727 0 222 3.5 6.1 0.00 0.00 0.00 1009.3
20260905210227 0 222 4.3 9.6 0.00 0.00 0.00 1009.3
20260905205726 0 223 5.2 9.6 0.00 0.00 0.00 1009.3
20260905205227 0 229 5.2 9.6 0.00 0.00 0.00 1009.3
20260905204725 0 219 4.3 7.8 0.00 0.00 0.00 1009.1
20260905204225 0 220 3.5 7.0 0.00 0.00 0.00 1009.0
20260905201223 0 223 2.6 7.0 0.00 0.00 0.00 1009.3
20260905200225 0 226 2.6 5.2 0.00 0.00 0.00 1009.4
20260905195223 0 225 2.6 6.1 0.00 0.00 0.00 1009.5
20260905194722 0 208 2.6 4.3 0.00 0.00 0.00 1009.6
20260905193722 0 215 2.6 6.1 0.00 0.00 0.00 1009.6
20260905193222 0 136 1.7 6.1 0.00 0.00 0.00 1009.5
20260905192722 0 161 1.7 6.1 0.00 0.00 0.00 1009.6
20260905192223 0 189 1.7 6.1 0.00 0.00 0.00 1009.7
20260905191721 0 205 2.6 4.3 0.00 0.00 0.00 1009.8
20260905191222 0 169 1.7 4.3 0.00 0.00 0.00 1010.0
20260905190723 0 239 1.7 5.2 0.00 0.00 0.00 1010.1
20260905190220 0 0 2.6 8.7 0.00 0.00 0.00 1010.4
20260905185721 0 332 2.6 8.7 0.00 0.00 0.00 1010.4
20260905185219 0 232 1.7 6.1 0.00 0.00 0.00 1010.4
20260905184719 0 266 1.7 7.0 0.00 0.00 0.00 1010.5
20260905184219 0 291 2.6 7.0 0.00 0.00 0.00 1010.5
20260905183721 0 252 2.6 4.3 0.00 0.00 0.00 1010.6
20260905183221 0 319 1.7 5.2 0.00 0.00 0.00 1010.5
20260905182721 0 275 1.7 8.7 0.00 0.00 0.00 1010.7
20260905182221 0 307 2.6 9.6 0.00 0.00 0.00 1010.7
20260905181721 0 268 3.5 9.6 0.00 0.00 0.00 1010.8
20260905181218 0 331 2.6 7.8 0.00 0.00 0.00 1010.9
20260905175717 0 221 1.7 4.3 0.00 0.00 0.00 1011.1
20260905175218 0 217 2.6 6.1 0.00 0.00 0.00 1011.1
20260905174719 0 230 2.6 6.1 0.00 0.00 0.00 1011.3
20260905174218 0 245 2.6 6.1 0.00 0.00 0.00 1011.3
20260905173717 0 224 3.5 7.8 0.00 0.00 0.00 1011.5
20260905173219 0 226 3.5 8.7 0.00 0.00 0.00 1011.4
20260905172718 0 229 3.5 8.7 0.00 0.00 0.00 1011.5
20260905172215 0 313 2.6 7.0 0.00 0.00 0.00 1011.6
20260905171715 0 314 3.5 8.7 0.00 0.00 0.00 1011.6
20260905171216 0 236 2.6 8.7 0.00 0.00 0.00 1011.6
20260905170716 0 225 2.6 7.0 0.00 0.00 0.00 1011.7
20260905170215 0 225 3.5 7.0 0.00 0.00 0.00 1011.8
20260905165713 0 223 2.6 7.8 0.00 0.00 0.00 1011.9
20260905165214 0 230 2.6 7.8 0.00 0.00 0.00 1012.0
20260905163712 0 232 4.3 8.7 0.00 0.00 0.00 1012.3
20260905163211 0 223 4.3 7.8 0.00 0.00 0.00 1012.4
20260905162211 0 222 4.3 8.7 0.00 0.00 0.00 1012.6
20260905161712 0 229 4.3 9.6 0.00 0.00 0.00 1012.7
20260905161211 0 227 4.3 9.6 0.00 0.00 0.00 1012.8
20260905160710 0 227 5.2 7.8 0.00 0.00 0.00 1012.8
20260905160210 0 225 5.2 10.4 0.00 0.00 0.00 1012.8
20260905155209 0 225 3.5 7.0 0.00 0.00 0.00 1012.9
20260905154709 0 236 2.6 7.8 0.00 0.00 0.00 1012.9
20260905154209 0 343 2.6 7.8 0.00 0.00 0.00 1013.0
20260905153210 0 228 3.5 7.0 0.00 0.00 0.00 1013.0
20260905152710 0 226 4.3 7.0 0.00 0.00 0.00 1012.9
20260905152210 0 227 3.5 7.8 0.00 0.00 0.00 1012.9
20260905151709 0 223 3.5 7.8 0.00 0.00 0.00 1013.0
20260905150208 0 234 4.3 8.7 0.00 0.00 0.00 1013.1
20260905145708 0 232 3.5 8.7 0.00 0.00 0.00 1013.2
20260905145207 0 236 3.5 7.8 0.00 0.00 0.00 1013.3
20260905144707 0 279 3.5 7.0 0.00 0.00 0.00 1013.2
20260905144207 0 220 3.5 7.0 0.00 0.00 0.00 1013.3
20260905143708 0 261 3.5 11.3 0.00 0.00 0.00 1013.4
20260905143207 0 234 3.5 11.3 0.00 0.00 0.00 1013.3
20260905142708 0 229 2.6 8.7 0.00 0.00 0.00 1013.3
20260905142207 0 225 2.6 8.7 0.00 0.00 0.00 1013.3
20260905141707 0 288 2.6 7.8 0.00 0.00 0.00 1013.2
20260905141208 0 230 2.6 5.2 0.00 0.00 0.00 1013.3
20260905140706 0 229 2.6 7.0 0.00 0.00 0.00 1013.3
20260905135705 0 302 2.6 7.0 0.00 0.00 0.00 1013.3
20260905135205 0 227 2.6 6.1 0.00 0.00 0.00 1013.4
20260905134705 0 311 2.6 5.2 0.00 0.00 0.00 1013.4
20260905134204 0 246 2.6 4.3 0.00 0.00 0.00 1013.4
20260905133705 0 225 2.6 6.1 0.00 0.00 0.00 1013.4
20260905132703 0 273 2.6 5.2 0.00 0.00 0.00 1013.4
20260905132203 0 225 3.5 7.0 0.00 0.00 0.00 1013.4
20260905131703 0 321 3.5 7.0 0.00 0.00 0.00 1013.4
20260905131206 0 222 2.6 7.0 0.00 0.00 0.00 1013.5
20260905130706 0 227 2.6 6.1 0.00 0.00 0.00 1013.6
20260905130205 0 229 2.6 6.1 0.00 0.00 0.00 1013.6